Location: B�rgermoos
(47.6500°N, 9.0667°E)
Time: 00:07:40
(UTC+00:00)

Tiros 1 - Pass Details

Date: 12 August 2021
Orbit: 630 x 663 km, 48.4° (Epoch: 19 September)

Event Time Altitude Azimuth Distance (km) Brightness Sun altitude
Rises 19:24:38 0° 284° (WNW) 2,986 12.3 -7.4°
Reaches altitude 10° 19:27:25 10° 270° (W) 2,066 10.7 -7.8°
Maximum altitude 19:31:03 22° 220° (SW) 1,421 9.0 -8.3°
Drops below altitude 10° 19:34:39 10° 170° (S) 2,042 9.3 -8.8°
Enters shadow 19:35:55 - 161° (SSE) 2,437 9.6 -9.0°
Sets 19:37:23 0° 155° (SSE) 2,941 - -9.2°
